Year,Month,Day,Hour,Minute,Value (Times are PST for temperature in C)
2020,01,17,00,00,-1.60
2020,01,17,00,01,-1.60
2020,01,17,00,02,-1.60
2020,01,17,00,03,-1.70
2020,01,17,00,04,-1.70
2020,01,17,00,05,-1.70
2020,01,17,00,06,-1.70
2020,01,17,00,07,-1.80
2020,01,17,00,08,-1.80
2020,01,17,00,09,-1.80
2020,01,17,00,10,-1.80
2020,01,17,00,11,-1.80
2020,01,17,00,12,-1.90
2020,01,17,00,13,-1.90
2020,01,17,00,14,-1.90
2020,01,17,00,15,-1.90
2020,01,17,00,16,-1.90
2020,01,17,00,17,-1.80
2020,01,17,00,18,-1.80
2020,01,17,00,19,-1.80
2020,01,17,00,20,-1.80
2020,01,17,00,21,-1.70
2020,01,17,00,22,-1.70
2020,01,17,00,23,-1.60
2020,01,17,00,24,-1.60
2020,01,17,00,25,-1.50
2020,01,17,00,26,-1.40
2020,01,17,00,27,-1.50
2020,01,17,00,28,-1.50
2020,01,17,00,29,-1.60
2020,01,17,00,30,-1.60
2020,01,17,00,31,-1.60
2020,01,17,00,32,-1.60
2020,01,17,00,33,-1.60
2020,01,17,00,34,-1.50
2020,01,17,00,35,-1.50
2020,01,17,00,36,-1.40
2020,01,17,00,37,-1.40
2020,01,17,00,38,-1.40
2020,01,17,00,39,-1.40
2020,01,17,00,40,-1.40
2020,01,17,00,41,-1.40
2020,01,17,00,42,-1.40
2020,01,17,00,43,-1.30
2020,01,17,00,44,-1.30
2020,01,17,00,45,-1.30
2020,01,17,00,46,-1.20
2020,01,17,00,47,-1.20
2020,01,17,00,48,-1.20
2020,01,17,00,49,-1.20
2020,01,17,00,50,-1.20
2020,01,17,00,51,-1.20
2020,01,17,00,52,-1.30
2020,01,17,00,53,-1.30
2020,01,17,00,54,-1.30
2020,01,17,00,55,-1.20
2020,01,17,00,56,-1.20
2020,01,17,00,57,-1.20
2020,01,17,00,58,-1.20
2020,01,17,00,59,-1.20
2020,01,17,01,00,-1.20
2020,01,17,01,01,-1.20
2020,01,17,01,02,-1.20
2020,01,17,01,03,-1.20
2020,01,17,01,04,-1.20
2020,01,17,01,05,-1.20
2020,01,17,01,06,-1.20
2020,01,17,01,07,-1.20
2020,01,17,01,08,-1.10
2020,01,17,01,09,-1.10
2020,01,17,01,10,-1.00
2020,01,17,01,11,-1.00
2020,01,17,01,12,-0.90
2020,01,17,01,13,-0.90
2020,01,17,01,14,-0.90
2020,01,17,01,15,-0.90
2020,01,17,01,16,-0.80
2020,01,17,01,17,-0.80
2020,01,17,01,18,-0.80
2020,01,17,01,19,-0.80
2020,01,17,01,20,-0.80
2020,01,17,01,21,-0.80
2020,01,17,01,22,-0.80
2020,01,17,01,23,-0.80
2020,01,17,01,24,-0.70
2020,01,17,01,25,-0.70
2020,01,17,01,26,-0.60
2020,01,17,01,27,-0.60
2020,01,17,01,28,-0.60
2020,01,17,01,29,-0.60
2020,01,17,01,30,-0.50
2020,01,17,01,31,-0.50
2020,01,17,01,32,-0.50
2020,01,17,01,33,-0.50
2020,01,17,01,34,-0.50
2020,01,17,01,35,-0.40
2020,01,17,01,36,-0.40
2020,01,17,01,37,-0.40
2020,01,17,01,38,-0.40
2020,01,17,01,39,-0.40
2020,01,17,01,40,-0.40
2020,01,17,01,41,-0.50
2020,01,17,01,42,-0.50
2020,01,17,01,43,-0.60
2020,01,17,01,44,-0.60
2020,01,17,01,45,-0.60
2020,01,17,01,46,-0.70
2020,01,17,01,47,-0.70
2020,01,17,01,48,-0.70
2020,01,17,01,49,-0.70
2020,01,17,01,50,-0.70
2020,01,17,01,51,-0.70
2020,01,17,01,52,-0.70
2020,01,17,01,53,-0.70
2020,01,17,01,54,-0.70
2020,01,17,01,55,-0.60
2020,01,17,01,56,-0.70
2020,01,17,01,57,-0.60
2020,01,17,01,58,-0.70
2020,01,17,01,59,-0.70
2020,01,17,02,00,-0.70
2020,01,17,02,01,-0.70
2020,01,17,02,02,-0.80
2020,01,17,02,03,-0.80
2020,01,17,02,04,-0.80
2020,01,17,02,05,-0.90
2020,01,17,02,06,-0.90
2020,01,17,02,07,-0.90
2020,01,17,02,08,-0.90
2020,01,17,02,09,-0.90
2020,01,17,02,10,-0.90
2020,01,17,02,11,-0.90
2020,01,17,02,12,-1.00
2020,01,17,02,13,-1.00
2020,01,17,02,14,-1.00
2020,01,17,02,15,-1.10
2020,01,17,02,16,-1.10
2020,01,17,02,17,-1.10
2020,01,17,02,18,-1.10
2020,01,17,02,19,-1.10
2020,01,17,02,20,-1.10
2020,01,17,02,21,-1.10
2020,01,17,02,22,-1.10
2020,01,17,02,23,-1.10
2020,01,17,02,24,-1.10
2020,01,17,02,25,-1.10
2020,01,17,02,26,-1.10
2020,01,17,02,27,-1.10
2020,01,17,02,28,-1.10
2020,01,17,02,29,-1.10
2020,01,17,02,30,-1.10
2020,01,17,02,31,-1.10
2020,01,17,02,32,-1.10
2020,01,17,02,33,-1.10
2020,01,17,02,34,-1.10
2020,01,17,02,35,-1.10
2020,01,17,02,36,-1.10
2020,01,17,02,37,-1.10
2020,01,17,02,38,-1.10
2020,01,17,02,39,-1.10
2020,01,17,02,40,-1.10
2020,01,17,02,41,-1.10
2020,01,17,02,42,-1.10
2020,01,17,02,43,-1.10
2020,01,17,02,44,-1.10
2020,01,17,02,45,-1.10
2020,01,17,02,46,-1.10
2020,01,17,02,47,-1.10
2020,01,17,02,48,-1.10
2020,01,17,02,49,-1.10
2020,01,17,02,50,-1.20
2020,01,17,02,51,-1.30
2020,01,17,02,52,-1.40
2020,01,17,02,53,-1.50
2020,01,17,02,54,-1.50
2020,01,17,02,55,-1.60
2020,01,17,02,56,-1.60
2020,01,17,02,57,-1.70
2020,01,17,02,58,-1.70
2020,01,17,02,59,-1.80
2020,01,17,03,00,-1.80
2020,01,17,03,01,-1.80
2020,01,17,03,02,-1.80
2020,01,17,03,03,-1.80
2020,01,17,03,04,-1.80
2020,01,17,03,05,-1.80
2020,01,17,03,06,-1.80
2020,01,17,03,07,-1.80
2020,01,17,03,08,-1.80
2020,01,17,03,09,-1.80
2020,01,17,03,10,-1.80
2020,01,17,03,11,-1.80
2020,01,17,03,12,-1.80
2020,01,17,03,13,-1.80
2020,01,17,03,14,-1.80
2020,01,17,03,15,-1.80
2020,01,17,03,16,-1.80
2020,01,17,03,17,-1.80
2020,01,17,03,18,-1.80
2020,01,17,03,19,-1.80
2020,01,17,03,20,-1.90
2020,01,17,03,21,-2.00
2020,01,17,03,22,-2.10
2020,01,17,03,23,-2.10
2020,01,17,03,24,-2.20
2020,01,17,03,25,-2.20
2020,01,17,03,26,-2.30
2020,01,17,03,27,-2.40
2020,01,17,03,28,-2.40
2020,01,17,03,29,-2.40
2020,01,17,03,30,-2.40
2020,01,17,03,31,-2.40
2020,01,17,03,32,-2.40
2020,01,17,03,33,-2.40
2020,01,17,03,34,-2.40
2020,01,17,03,35,-2.30
2020,01,17,03,36,-2.30
2020,01,17,03,37,-2.20
2020,01,17,03,38,-2.20
2020,01,17,03,39,-2.00
2020,01,17,03,40,-1.90
2020,01,17,03,41,-1.80
2020,01,17,03,42,-1.80
2020,01,17,03,43,-1.80
2020,01,17,03,44,-1.80
2020,01,17,03,45,-1.80
2020,01,17,03,46,-1.90
2020,01,17,03,47,-1.90
2020,01,17,03,48,-2.00
2020,01,17,03,49,-2.00
2020,01,17,03,50,-2.10
2020,01,17,03,51,-2.20
2020,01,17,03,52,-2.40
2020,01,17,03,53,-2.50
2020,01,17,03,54,-2.60
2020,01,17,03,55,-2.70
2020,01,17,03,56,-2.80
2020,01,17,03,57,-2.80
2020,01,17,03,58,-2.90
2020,01,17,03,59,-2.90
2020,01,17,04,00,-3.00
2020,01,17,04,01,-3.00
2020,01,17,04,02,-3.00
2020,01,17,04,03,-3.00
2020,01,17,04,04,-2.90
2020,01,17,04,05,-2.90
2020,01,17,04,06,-2.90
2020,01,17,04,07,-2.90
2020,01,17,04,08,-2.90
2020,01,17,04,09,-2.80
2020,01,17,04,10,-2.80
2020,01,17,04,11,-2.80
2020,01,17,04,12,-2.70
2020,01,17,04,13,-2.60
2020,01,17,04,14,-2.50
2020,01,17,04,15,-2.40
2020,01,17,04,16,-2.30
2020,01,17,04,17,-2.20
2020,01,17,04,18,-2.10
2020,01,17,04,19,-2.00
2020,01,17,04,20,-2.00
2020,01,17,04,21,-2.00
2020,01,17,04,22,-2.00
2020,01,17,04,23,-2.00
2020,01,17,04,24,-1.90
2020,01,17,04,25,-1.90
2020,01,17,04,26,-2.00
2020,01,17,04,27,-2.00
2020,01,17,04,28,-2.10
2020,01,17,04,29,-2.10
2020,01,17,04,30,-2.20
2020,01,17,04,31,-2.30
2020,01,17,04,32,-2.40
2020,01,17,04,33,-2.50
2020,01,17,04,34,-2.50
2020,01,17,04,35,-2.60
2020,01,17,04,36,-2.60
2020,01,17,04,37,-2.70
2020,01,17,04,38,-2.70
2020,01,17,04,39,-2.70
2020,01,17,04,40,-2.70
2020,01,17,04,41,-2.80
2020,01,17,04,42,-2.80
2020,01,17,04,43,-2.90
2020,01,17,04,44,-2.90
2020,01,17,04,45,-3.00
2020,01,17,04,46,-2.90
2020,01,17,04,47,-2.90
2020,01,17,04,48,-2.90
2020,01,17,04,49,-2.90
2020,01,17,04,50,-2.90
2020,01,17,04,51,-2.90
2020,01,17,04,52,-2.80
2020,01,17,04,53,-2.80
2020,01,17,04,54,-2.70
2020,01,17,04,55,-2.60
2020,01,17,04,56,-2.50
2020,01,17,04,57,-2.50
2020,01,17,04,58,-2.40
2020,01,17,04,59,-2.60
2020,01,17,05,00,-2.70
2020,01,17,05,01,-2.90
2020,01,17,05,02,-3.00
2020,01,17,05,03,-3.20
2020,01,17,05,04,-3.30
2020,01,17,05,05,-3.30
2020,01,17,05,06,-3.40
2020,01,17,05,07,-3.40
2020,01,17,05,08,-3.40
2020,01,17,05,09,-3.30
2020,01,17,05,10,-3.30
2020,01,17,05,11,-3.30
2020,01,17,05,12,-3.30
2020,01,17,05,13,-3.30
2020,01,17,05,14,-3.20
2020,01,17,05,15,-3.10
2020,01,17,05,16,-3.00
2020,01,17,05,17,-3.00
2020,01,17,05,18,-3.00
2020,01,17,05,19,-3.00
2020,01,17,05,20,-2.90
2020,01,17,05,21,-2.90
2020,01,17,05,22,-2.80
2020,01,17,05,23,-2.80
2020,01,17,05,24,-2.80
2020,01,17,05,25,-2.90
2020,01,17,05,26,-2.90
2020,01,17,05,27,-3.00
2020,01,17,05,28,-3.20
2020,01,17,05,29,-3.20
2020,01,17,05,30,-3.40
2020,01,17,05,31,-3.50
2020,01,17,05,32,-3.60
2020,01,17,05,33,-3.70
2020,01,17,05,34,-3.70
2020,01,17,05,35,-3.80
2020,01,17,05,36,-3.80
2020,01,17,05,37,-3.70
2020,01,17,05,38,-3.70
2020,01,17,05,39,-3.60
2020,01,17,05,40,-3.50
2020,01,17,05,41,-3.40
2020,01,17,05,42,-3.20
2020,01,17,05,43,-3.10
2020,01,17,05,44,-3.10
2020,01,17,05,45,-3.00
2020,01,17,05,46,-3.10
2020,01,17,05,47,-3.10
2020,01,17,05,48,-3.20
2020,01,17,05,49,-3.20
2020,01,17,05,50,-3.20
2020,01,17,05,51,-3.20
2020,01,17,05,52,-3.30
2020,01,17,05,53,-3.40
2020,01,17,05,54,-3.40
2020,01,17,05,55,-3.50
2020,01,17,05,56,-3.50
2020,01,17,05,57,-3.50
2020,01,17,05,58,-3.50
2020,01,17,05,59,-3.60
2020,01,17,06,00,-3.60
2020,01,17,06,01,-3.60
2020,01,17,06,02,-3.70
2020,01,17,06,03,-3.70
2020,01,17,06,04,-3.70
2020,01,17,06,05,-3.70
2020,01,17,06,06,-3.80
2020,01,17,06,07,-3.80
2020,01,17,06,08,-3.80
2020,01,17,06,09,-3.70
2020,01,17,06,10,-3.60
2020,01,17,06,11,-3.50
2020,01,17,06,12,-3.40
2020,01,17,06,13,-3.50
2020,01,17,06,14,-3.50
2020,01,17,06,15,-3.60
2020,01,17,06,16,-3.60
2020,01,17,06,17,-3.70
2020,01,17,06,18,-3.70
2020,01,17,06,19,-3.60
2020,01,17,06,20,-3.60
2020,01,17,06,21,-3.60
2020,01,17,06,22,-3.50
2020,01,17,06,23,-3.40
2020,01,17,06,24,-3.40
2020,01,17,06,25,-3.40
2020,01,17,06,26,-3.40
2020,01,17,06,27,-3.30
2020,01,17,06,28,-3.30
2020,01,17,06,29,-3.30
2020,01,17,06,30,-3.30
2020,01,17,06,31,-3.40
2020,01,17,06,32,-3.40
2020,01,17,06,33,-3.50
2020,01,17,06,34,-3.60
2020,01,17,06,35,-3.60
2020,01,17,06,36,-3.60
2020,01,17,06,37,-3.70
2020,01,17,06,38,-3.60
2020,01,17,06,39,-3.50
2020,01,17,06,40,-3.50
2020,01,17,06,41,-3.40
2020,01,17,06,42,-3.50
2020,01,17,06,43,-3.50
2020,01,17,06,44,-3.60
2020,01,17,06,45,-3.70
2020,01,17,06,46,-3.70
2020,01,17,06,47,-3.80
2020,01,17,06,48,-3.80
2020,01,17,06,49,-3.80
2020,01,17,06,50,-3.80
2020,01,17,06,51,-3.80
2020,01,17,06,52,-3.80
2020,01,17,06,53,-3.70
2020,01,17,06,54,-3.70
2020,01,17,06,55,-3.70
2020,01,17,06,56,-3.60
2020,01,17,06,57,-3.60
2020,01,17,06,58,-3.60
2020,01,17,06,59,-3.60
2020,01,17,07,00,-3.70
2020,01,17,07,01,-3.70
2020,01,17,07,02,-3.70
2020,01,17,07,03,-3.70
2020,01,17,07,04,-3.70
2020,01,17,07,05,-3.70
2020,01,17,07,06,-3.70
2020,01,17,07,07,-3.60
2020,01,17,07,08,-3.60
2020,01,17,07,09,-3.60
2020,01,17,07,10,-3.60
2020,01,17,07,11,-3.60
2020,01,17,07,12,-3.60
2020,01,17,07,13,-3.60
2020,01,17,07,14,-3.70
2020,01,17,07,15,-3.80
2020,01,17,07,16,-3.90
2020,01,17,07,17,-4.00
2020,01,17,07,18,-4.00
2020,01,17,07,19,-4.00
2020,01,17,07,20,-3.90
2020,01,17,07,21,-3.70
2020,01,17,07,22,-3.60
2020,01,17,07,23,-3.50
2020,01,17,07,24,-3.40
2020,01,17,07,25,-3.40
2020,01,17,07,26,-3.40
2020,01,17,07,27,-3.40
2020,01,17,07,28,-3.30
2020,01,17,07,29,-3.30
2020,01,17,07,30,-3.30
2020,01,17,07,31,-3.30
2020,01,17,07,32,-3.40
2020,01,17,07,33,-3.30
2020,01,17,07,34,-3.30
2020,01,17,07,35,-3.20
2020,01,17,07,36,-3.20
2020,01,17,07,37,-3.20
2020,01,17,07,38,-3.20
2020,01,17,07,39,-3.10
2020,01,17,07,40,-3.10
2020,01,17,07,41,-3.20
2020,01,17,07,42,-3.20
2020,01,17,07,43,-3.20
2020,01,17,07,44,-3.20
2020,01,17,07,45,-3.20
2020,01,17,07,46,-3.20
2020,01,17,07,47,-3.30
2020,01,17,07,48,-3.30
2020,01,17,07,49,-3.40
2020,01,17,07,50,-3.50
2020,01,17,07,51,-3.60
2020,01,17,07,52,-3.70
2020,01,17,07,53,-3.80
2020,01,17,07,54,-4.00
2020,01,17,07,55,-4.10
2020,01,17,07,56,-4.20
2020,01,17,07,57,-4.30
2020,01,17,07,58,-4.40
2020,01,17,07,59,-4.40
2020,01,17,08,00,-4.30
2020,01,17,08,01,-4.30
2020,01,17,08,02,-4.30
2020,01,17,08,03,-4.30
2020,01,17,08,04,-4.30
2020,01,17,08,05,-4.20
2020,01,17,08,06,-4.20
2020,01,17,08,07,-4.30
2020,01,17,08,08,-4.30
2020,01,17,08,09,-4.30
2020,01,17,08,10,-4.30
2020,01,17,08,11,-4.40
2020,01,17,08,12,-4.40
2020,01,17,08,13,-4.40
2020,01,17,08,14,-4.40
2020,01,17,08,15,-4.40
2020,01,17,08,16,-4.40
2020,01,17,08,17,-4.40
2020,01,17,08,18,-4.40
2020,01,17,08,19,-4.40
2020,01,17,08,20,-4.30
2020,01,17,08,21,-4.30
2020,01,17,08,22,-4.30
2020,01,17,08,23,-4.30
2020,01,17,08,24,-4.30
2020,01,17,08,25,-4.30
2020,01,17,08,26,-4.30
2020,01,17,08,27,-4.30
2020,01,17,08,28,-4.30
2020,01,17,08,29,-4.30
2020,01,17,08,30,-4.30
2020,01,17,08,31,-4.20
2020,01,17,08,32,-4.20
2020,01,17,08,33,-4.20
2020,01,17,08,34,-4.20
2020,01,17,08,35,-4.20
2020,01,17,08,36,-4.20
2020,01,17,08,37,-4.10
2020,01,17,08,38,-4.10
2020,01,17,08,39,-4.00
2020,01,17,08,40,-4.00
2020,01,17,08,41,-3.90
2020,01,17,08,42,-3.90
2020,01,17,08,43,-3.90
2020,01,17,08,44,-3.90
2020,01,17,08,45,-3.90
2020,01,17,08,46,-3.90
2020,01,17,08,47,-3.90
2020,01,17,08,48,-3.80
2020,01,17,08,49,-3.80
2020,01,17,08,50,-3.80
2020,01,17,08,51,-3.80
2020,01,17,08,52,-3.70
2020,01,17,08,53,-3.70
2020,01,17,08,54,-3.70
2020,01,17,08,55,-3.60
2020,01,17,08,56,-3.60
2020,01,17,08,57,-3.60
2020,01,17,08,58,-3.60
2020,01,17,08,59,-3.60
2020,01,17,09,00,-3.60
2020,01,17,09,01,-3.60
2020,01,17,09,02,-3.60
2020,01,17,09,03,-3.60
2020,01,17,09,04,-3.50
2020,01,17,09,05,-3.50
2020,01,17,09,06,-3.40
2020,01,17,09,07,-3.40
2020,01,17,09,08,-3.40
2020,01,17,09,09,-3.40
2020,01,17,09,10,-3.40
2020,01,17,09,11,-3.40
2020,01,17,09,12,-3.30
2020,01,17,09,13,-3.30
2020,01,17,09,14,-3.30
2020,01,17,09,15,-3.30
2020,01,17,09,16,-3.30
2020,01,17,09,17,-3.30
2020,01,17,09,18,-3.30
2020,01,17,09,19,-3.20
2020,01,17,09,20,-3.20
2020,01,17,09,21,-3.20
2020,01,17,09,22,-3.20
2020,01,17,09,23,-3.20
2020,01,17,09,24,-3.10
2020,01,17,09,25,-3.10
2020,01,17,09,26,-3.00
2020,01,17,09,27,-3.00
2020,01,17,09,28,-2.90
2020,01,17,09,29,-2.90
2020,01,17,09,30,-2.80
2020,01,17,09,31,-2.80
2020,01,17,09,32,-2.70
2020,01,17,09,33,-2.70
2020,01,17,09,34,-2.60
2020,01,17,09,35,-2.60
2020,01,17,09,36,-2.60
2020,01,17,09,37,-2.50
2020,01,17,09,38,-2.50
2020,01,17,09,39,-2.50
2020,01,17,09,40,-2.50
2020,01,17,09,41,-2.40
2020,01,17,09,42,-2.30
2020,01,17,09,43,-2.30
2020,01,17,09,44,-2.30
2020,01,17,09,45,-2.20
2020,01,17,09,46,-2.20
2020,01,17,09,47,-2.20
2020,01,17,09,48,-2.20
2020,01,17,09,49,-2.20
2020,01,17,09,50,-2.10
2020,01,17,09,51,-2.10
2020,01,17,09,52,-2.10
2020,01,17,09,53,-2.00
2020,01,17,09,54,-1.90
2020,01,17,09,55,-1.90
2020,01,17,09,56,-1.80
2020,01,17,09,57,-1.80
2020,01,17,09,58,-1.70
2020,01,17,09,59,-1.60
2020,01,17,10,00,-1.40
2020,01,17,10,01,-1.40
2020,01,17,10,02,-1.30
2020,01,17,10,03,-1.20
2020,01,17,10,04,-1.10
2020,01,17,10,05,-1.10
2020,01,17,10,06,-1.10
2020,01,17,10,07,-1.00
2020,01,17,10,08,-0.90
2020,01,17,10,09,-0.90
2020,01,17,10,10,-0.90
2020,01,17,10,11,-0.90
2020,01,17,10,12,-0.90
2020,01,17,10,13,-1.00
2020,01,17,10,14,-1.00
2020,01,17,10,15,-1.00
2020,01,17,10,16,-1.00
2020,01,17,10,17,-1.00
2020,01,17,10,18,-0.90
2020,01,17,10,19,-0.90
2020,01,17,10,20,-0.80
2020,01,17,10,21,-0.80
2020,01,17,10,22,-0.80
2020,01,17,10,23,-0.80
2020,01,17,10,24,-0.70
2020,01,17,10,25,-0.70
2020,01,17,10,26,-0.70
2020,01,17,10,27,-0.70
2020,01,17,10,28,-0.70
2020,01,17,10,29,-0.60
2020,01,17,10,30,-0.60
2020,01,17,10,31,-0.60
2020,01,17,10,32,-0.50
2020,01,17,10,33,-0.50
2020,01,17,10,34,-0.40
2020,01,17,10,35,-0.40
2020,01,17,10,36,-0.40
2020,01,17,10,37,-0.40
2020,01,17,10,38,-0.30
2020,01,17,10,39,-0.30
2020,01,17,10,40,-0.30
2020,01,17,10,41,-0.30
2020,01,17,10,42,-0.20
2020,01,17,10,43,-0.20
2020,01,17,10,44,-0.10
2020,01,17,10,45,0.00
2020,01,17,10,46,0.00
2020,01,17,10,47,0.10
2020,01,17,10,48,0.20
2020,01,17,10,49,0.20
2020,01,17,10,50,0.30
2020,01,17,10,51,0.40
2020,01,17,10,52,0.40
2020,01,17,10,53,0.50
2020,01,17,10,54,0.50
2020,01,17,10,55,0.60
2020,01,17,10,56,0.60
2020,01,17,10,57,0.60
2020,01,17,10,58,0.70
2020,01,17,10,59,0.70
2020,01,17,11,00,0.70
2020,01,17,11,01,0.60
2020,01,17,11,02,0.60
2020,01,17,11,03,0.60
2020,01,17,11,04,0.60
2020,01,17,11,05,0.60
2020,01,17,11,06,0.70
2020,01,17,11,07,0.70
2020,01,17,11,08,0.80
2020,01,17,11,09,0.90
2020,01,17,11,10,1.00
2020,01,17,11,11,1.00
2020,01,17,11,12,1.10
2020,01,17,11,13,1.20
2020,01,17,11,14,1.20
2020,01,17,11,15,1.30
2020,01,17,11,16,1.30
2020,01,17,11,17,1.30
2020,01,17,11,18,1.30
2020,01,17,11,19,1.30
2020,01,17,11,20,1.30
2020,01,17,11,21,1.30
2020,01,17,11,22,1.30
2020,01,17,11,23,1.40
2020,01,17,11,24,1.40
2020,01,17,11,25,1.40
2020,01,17,11,26,1.40
2020,01,17,11,27,1.40
2020,01,17,11,28,1.40
2020,01,17,11,29,1.40
2020,01,17,11,30,1.30
2020,01,17,11,31,1.30
2020,01,17,11,32,1.30
2020,01,17,11,33,1.30
2020,01,17,11,34,1.20
2020,01,17,11,35,1.20
2020,01,17,11,36,1.10
2020,01,17,11,37,1.10
2020,01,17,11,38,1.10
2020,01,17,11,39,1.00
2020,01,17,11,40,1.00
2020,01,17,11,41,0.90
2020,01,17,11,42,0.90
2020,01,17,11,43,0.90
2020,01,17,11,44,0.90
2020,01,17,11,45,0.90
2020,01,17,11,46,0.90
2020,01,17,11,47,0.90
2020,01,17,11,48,1.00
2020,01,17,11,49,1.00
2020,01,17,11,50,1.10
2020,01,17,11,51,1.10
2020,01,17,11,52,1.20
2020,01,17,11,53,1.30
2020,01,17,11,54,1.30
2020,01,17,11,55,1.30
2020,01,17,11,56,1.30
2020,01,17,11,57,1.40
2020,01,17,11,58,1.50
2020,01,17,11,59,1.60
2020,01,17,12,00,1.70
2020,01,17,12,01,1.80
2020,01,17,12,02,1.90
2020,01,17,12,03,2.00
2020,01,17,12,04,2.20
2020,01,17,12,05,2.20
2020,01,17,12,06,2.30
2020,01,17,12,07,2.40
2020,01,17,12,08,2.50
2020,01,17,12,09,2.50
2020,01,17,12,10,2.60
2020,01,17,12,11,2.70
2020,01,17,12,12,2.70
2020,01,17,12,13,2.70
2020,01,17,12,14,2.70
2020,01,17,12,15,2.60
2020,01,17,12,16,2.60
2020,01,17,12,17,2.50
2020,01,17,12,18,2.50
2020,01,17,12,19,2.40
2020,01,17,12,20,2.40
2020,01,17,12,21,2.40
2020,01,17,12,22,2.30
2020,01,17,12,23,2.30
2020,01,17,12,24,2.20
2020,01,17,12,25,2.10
2020,01,17,12,26,1.90
2020,01,17,12,27,1.80
2020,01,17,12,28,1.70
2020,01,17,12,29,1.60
2020,01,17,12,30,1.50
2020,01,17,12,31,1.40
2020,01,17,12,32,1.30
2020,01,17,12,33,1.30
2020,01,17,12,34,1.30
2020,01,17,12,35,1.30
2020,01,17,12,36,1.30
2020,01,17,12,37,1.30
2020,01,17,12,38,1.30
2020,01,17,12,39,1.30
2020,01,17,12,40,1.30
2020,01,17,12,41,1.30
2020,01,17,12,42,1.30
2020,01,17,12,43,1.30
2020,01,17,12,44,1.30
2020,01,17,12,45,1.30
2020,01,17,12,46,1.30
2020,01,17,12,47,1.30
2020,01,17,12,48,1.30
2020,01,17,12,49,1.30
2020,01,17,12,50,1.30
2020,01,17,12,51,1.30
2020,01,17,12,52,1.30
2020,01,17,12,53,1.30
2020,01,17,12,54,1.30
2020,01,17,12,55,1.30
2020,01,17,12,56,1.30
2020,01,17,12,57,1.30
2020,01,17,12,58,1.30
2020,01,17,12,59,1.30
2020,01,17,13,00,1.30
2020,01,17,13,01,1.30
2020,01,17,13,02,1.40
2020,01,17,13,03,1.40
2020,01,17,13,04,1.40
2020,01,17,13,05,1.50
2020,01,17,13,06,1.50
2020,01,17,13,07,1.60
2020,01,17,13,08,1.60
2020,01,17,13,09,1.60
2020,01,17,13,10,1.70
2020,01,17,13,11,1.70
2020,01,17,13,12,1.80
2020,01,17,13,13,1.80
2020,01,17,13,14,1.80
2020,01,17,13,15,1.80
2020,01,17,13,16,1.80
2020,01,17,13,17,1.80
2020,01,17,13,18,1.90
2020,01,17,13,19,1.90
2020,01,17,13,20,1.90
2020,01,17,13,21,1.90
2020,01,17,13,22,1.90
2020,01,17,13,23,1.80
2020,01,17,13,24,1.80
2020,01,17,13,25,1.80
2020,01,17,13,26,1.80
2020,01,17,13,27,1.80
2020,01,17,13,28,1.80
2020,01,17,13,29,1.70
2020,01,17,13,30,1.70
2020,01,17,13,31,1.70
2020,01,17,13,32,1.70
2020,01,17,13,33,1.60
2020,01,17,13,34,1.60
2020,01,17,13,35,1.60
2020,01,17,13,36,1.60
2020,01,17,13,37,1.60
2020,01,17,13,38,1.60
2020,01,17,13,39,1.60
2020,01,17,13,40,1.70
2020,01,17,13,41,1.70
2020,01,17,13,42,1.70
2020,01,17,13,43,1.70
2020,01,17,13,44,1.80
2020,01,17,13,45,1.80
2020,01,17,13,46,1.80
2020,01,17,13,47,1.80
2020,01,17,13,48,1.90
2020,01,17,13,49,1.90
2020,01,17,13,50,1.90
2020,01,17,13,51,1.90
2020,01,17,13,52,1.90
2020,01,17,13,53,1.90
2020,01,17,13,54,1.90
2020,01,17,13,55,2.00
2020,01,17,13,56,2.00
2020,01,17,13,57,2.00
2020,01,17,13,58,2.00
2020,01,17,13,59,2.10
2020,01,17,14,00,2.10
2020,01,17,14,01,2.10
2020,01,17,14,02,2.10
2020,01,17,14,03,2.20
2020,01,17,14,04,2.20
2020,01,17,14,05,2.20
2020,01,17,14,06,2.20
2020,01,17,14,07,2.20
2020,01,17,14,08,2.20
2020,01,17,14,09,2.30
2020,01,17,14,10,2.30
2020,01,17,14,11,2.30
2020,01,17,14,12,2.30
2020,01,17,14,13,2.20
2020,01,17,14,14,2.20
2020,01,17,14,15,2.20
2020,01,17,14,16,2.20
2020,01,17,14,17,2.10
2020,01,17,14,18,2.10
2020,01,17,14,19,2.10
2020,01,17,14,20,2.00
2020,01,17,14,21,2.00
2020,01,17,14,22,2.00
2020,01,17,14,23,1.90
2020,01,17,14,24,1.90
2020,01,17,14,25,1.90
2020,01,17,14,26,1.90
2020,01,17,14,27,1.90
2020,01,17,14,28,1.90
2020,01,17,14,29,1.90
2020,01,17,14,30,1.90
2020,01,17,14,31,1.90
2020,01,17,14,32,1.90
2020,01,17,14,33,1.80
2020,01,17,14,34,1.80
2020,01,17,14,35,1.80
2020,01,17,14,36,1.80
2020,01,17,14,37,1.80
2020,01,17,14,38,1.80
2020,01,17,14,39,1.80
2020,01,17,14,40,1.80
2020,01,17,14,41,1.90
2020,01,17,14,42,1.90
2020,01,17,14,43,1.90
2020,01,17,14,44,1.90
2020,01,17,14,45,1.90
2020,01,17,14,46,1.90
2020,01,17,14,47,1.90
2020,01,17,14,48,1.90
2020,01,17,14,49,1.90
2020,01,17,14,50,1.90
2020,01,17,14,51,1.90
2020,01,17,14,52,1.90
2020,01,17,14,53,1.90
2020,01,17,14,54,1.90
2020,01,17,14,55,1.90
2020,01,17,14,56,1.90
2020,01,17,14,57,1.90
2020,01,17,14,58,1.90
2020,01,17,14,59,1.90
2020,01,17,15,00,1.90
2020,01,17,15,01,1.90
2020,01,17,15,02,1.90
2020,01,17,15,03,1.90
2020,01,17,15,04,1.90
2020,01,17,15,05,1.90
2020,01,17,15,06,1.90
2020,01,17,15,07,1.90
2020,01,17,15,08,1.90
2020,01,17,15,09,1.90
2020,01,17,15,10,1.90
2020,01,17,15,11,1.90
2020,01,17,15,12,1.90
2020,01,17,15,13,1.90
2020,01,17,15,14,1.90
2020,01,17,15,15,1.90
2020,01,17,15,16,1.90
2020,01,17,15,17,1.90
2020,01,17,15,18,1.90
2020,01,17,15,19,1.90
2020,01,17,15,20,1.90
2020,01,17,15,21,1.90
2020,01,17,15,22,1.90
2020,01,17,15,23,1.90
2020,01,17,15,24,1.90
2020,01,17,15,25,1.90
2020,01,17,15,26,1.90
2020,01,17,15,27,1.90
2020,01,17,15,28,1.90
2020,01,17,15,29,1.90
2020,01,17,15,30,1.90
2020,01,17,15,31,1.90
2020,01,17,15,32,1.90
2020,01,17,15,33,1.90
2020,01,17,15,34,1.90
2020,01,17,15,35,1.90
2020,01,17,15,36,1.90
2020,01,17,15,37,1.90
2020,01,17,15,38,1.90
2020,01,17,15,39,1.90
2020,01,17,15,40,1.90
2020,01,17,15,41,1.80
2020,01,17,15,42,1.90
2020,01,17,15,43,1.90
2020,01,17,15,44,1.90
2020,01,17,15,45,1.80
2020,01,17,15,46,1.80
2020,01,17,15,47,1.80
2020,01,17,15,48,1.80
2020,01,17,15,49,1.80
2020,01,17,15,50,1.80
2020,01,17,15,51,1.80
2020,01,17,15,52,1.80
2020,01,17,15,53,1.80
2020,01,17,15,54,1.80
2020,01,17,15,55,1.80
2020,01,17,15,56,1.80
2020,01,17,15,57,1.80
2020,01,17,15,58,1.80
2020,01,17,15,59,1.80
2020,01,17,16,00,1.80
2020,01,17,16,01,1.80
2020,01,17,16,02,1.80
2020,01,17,16,03,1.80
2020,01,17,16,04,1.80
2020,01,17,16,05,1.70
2020,01,17,16,06,1.70
2020,01,17,16,07,1.70
2020,01,17,16,08,1.70
2020,01,17,16,09,1.70
2020,01,17,16,10,1.70
2020,01,17,16,11,1.70
2020,01,17,16,12,1.70
2020,01,17,16,13,1.70
2020,01,17,16,14,1.70
2020,01,17,16,15,1.70
2020,01,17,16,16,1.70
2020,01,17,16,17,1.70
2020,01,17,16,18,1.70
2020,01,17,16,19,1.70
2020,01,17,16,20,1.70
2020,01,17,16,21,1.70
2020,01,17,16,22,1.70
2020,01,17,16,23,1.60
2020,01,17,16,24,1.60
2020,01,17,16,25,1.60
2020,01,17,16,26,1.60
2020,01,17,16,27,1.60
2020,01,17,16,28,1.60
2020,01,17,16,29,1.60
2020,01,17,16,30,1.60
2020,01,17,16,31,1.60
2020,01,17,16,32,1.60
2020,01,17,16,33,1.60
2020,01,17,16,34,1.60
2020,01,17,16,35,1.60
2020,01,17,16,36,1.60
2020,01,17,16,37,1.60
2020,01,17,16,38,1.60
2020,01,17,16,39,1.60
2020,01,17,16,40,1.60
2020,01,17,16,41,1.60
2020,01,17,16,42,1.50
2020,01,17,16,43,1.50
2020,01,17,16,44,1.50
2020,01,17,16,45,1.40
2020,01,17,16,46,1.40
2020,01,17,16,47,1.40
2020,01,17,16,48,1.30
2020,01,17,16,49,1.30
2020,01,17,16,50,1.30
2020,01,17,16,51,1.30
2020,01,17,16,52,1.30
2020,01,17,16,53,1.30
2020,01,17,16,54,1.30
2020,01,17,16,55,1.30
2020,01,17,16,56,1.30
2020,01,17,16,57,1.30
2020,01,17,16,58,1.30
2020,01,17,16,59,1.30
2020,01,17,17,00,1.30
2020,01,17,17,01,1.30
2020,01,17,17,02,1.30
2020,01,17,17,03,1.30
2020,01,17,17,04,1.30
2020,01,17,17,05,1.30
2020,01,17,17,06,1.30
2020,01,17,17,07,1.30
2020,01,17,17,08,1.30
2020,01,17,17,09,1.30
2020,01,17,17,10,1.30
2020,01,17,17,11,1.30
2020,01,17,17,12,1.30
2020,01,17,17,13,1.30
2020,01,17,17,14,1.40
2020,01,17,17,15,1.30
2020,01,17,17,16,1.40
2020,01,17,17,17,1.40
2020,01,17,17,18,1.40
2020,01,17,17,19,1.40
2020,01,17,17,20,1.50
2020,01,17,17,21,1.50
2020,01,17,17,22,1.60
2020,01,17,17,23,1.60
2020,01,17,17,24,1.60
2020,01,17,17,25,1.60
2020,01,17,17,26,1.60
2020,01,17,17,27,1.60
2020,01,17,17,28,1.70
2020,01,17,17,29,1.70
2020,01,17,17,30,1.70
2020,01,17,17,31,1.70
2020,01,17,17,32,1.70
2020,01,17,17,33,1.70
2020,01,17,17,34,1.70
2020,01,17,17,35,1.70
2020,01,17,17,36,1.70
2020,01,17,17,37,1.70